Twin Falls, ID

9:22 PM MDT on March 26, 2017 (GMT -0600)
Joslin Field-Magic Valley Regional

Weather History for KTWF - November, 2011

Change the Weather History Date:

Wednesday, November 9, 2011

  Actual Average Record
Temperature  
Mean Temperature 33 °F -  
Max Temperature 51 °F 52 °F 72 °F (2014)
Min Temperature 15 °F 29 °F 15 °F (2011)
Degree Days  
Heating Degree Days 32 24  
Month to date heating degree days 263 203  
Since 1 July heating degree days 655 822  
Cooling Degree Days 0 0  
Month to date cooling degree days 0 0  
Year to date cooling degree days 736 680  
Moisture  
Dew Point 19 °F    
Average Humidity 56    
Maximum Humidity 84    
Minimum Humidity 27    
Precipitation  
Precipitation 0.00 in 0.03 in 0.17 in (2002)
Month to date precipitation T 0.34  
Year to date precipitation 8.38 8.59  
Sea Level Pressure  
Sea Level Pressure 30.48 in    
Wind  
Wind Speed 5 mph (East)    
Max Wind Speed 12 mph    
Max Gust Speed 14 mph    
Visibility 10 miles    
Events      
T = Trace of Precipitation, MM = Missing Value Source: NWS Daily Summary

Daily Weather History Graph

Daily Weather History Graph

Search for Another Location

Airport or City:

Trip Planner

Search our weather history database for the weather conditions in past years. The results will help you decide how hot, cold, wet, or windy it might be!

Date:

Astronomy

Nov. 09, 2011 Rise Set
Actual Time 7:21 AM MST 5:21 PM MST
Civil Twilight 6:51 AM MST 5:51 PM MST
Nautical Twilight 6:17 AM MST 6:25 PM MST
Astronomical Twilight 5:44 AM MST 6:58 PM MST
Moon 4:35 PM MST (11/9) 6:20 AM MST (11/9)
Length of Visible Light 11h 00m
Length of Day
10h 00m
Waxing Gibbous, 99% of the Moon is Illuminated
Nov 9
Waxing Gibbous
Nov 10
Full
Nov 18
Last Quarter
Nov 24
New
Dec 2
First Quarter

Hourly Weather History & Observations

Time (MST) Temp. Windchill Dew Point Humidity Pressure Visibility Wind Dir Wind Speed Gust Speed Precip Events Conditions
12:53 AM 21.9 °F 17.2 °F 17.1 °F 82% 30.46 in 10.0 mi SSW 3.5 mph - N/A   Clear
1:53 AM 21.0 °F - 16.0 °F 81% 30.46 in 10.0 mi Calm Calm - N/A   Clear
2:53 AM 19.0 °F - 14.0 °F 81% 30.48 in 10.0 mi Calm Calm - N/A   Clear
3:53 AM 21.2 °F - 15.8 °F 80% 30.45 in 10.0 mi Calm Calm - N/A   Clear
4:53 AM 23.0 °F 18.4 °F 16.0 °F 74% 30.48 in 10.0 mi SE 3.5 mph - N/A   Clear
5:53 AM 23.0 °F 18.4 °F 16.0 °F 74% 30.53 in 10.0 mi West 3.5 mph - N/A   Clear
6:53 AM 19.4 °F 12.8 °F 14.0 °F 80% 30.47 in 10.0 mi East 4.6 mph - N/A   Clear
7:53 AM 19.9 °F 14.9 °F 14.0 °F 78% 30.58 in 10.0 mi East 3.5 mph - N/A   Clear
8:53 AM 26.1 °F 18.4 °F 19.0 °F 75% 30.58 in 10.0 mi ENE 6.9 mph - N/A   Clear
9:53 AM 30.0 °F 23.2 °F 23.0 °F 75% 30.58 in 10.0 mi ENE 6.9 mph - N/A   Clear
10:53 AM 35.6 °F 30.7 °F 24.8 °F 65% 30.51 in 10.0 mi East 5.8 mph - N/A   Clear
11:53 AM 41.0 °F 35.2 °F 25.0 °F 53% 30.52 in 10.0 mi ENE 9.2 mph - N/A   Clear
12:53 PM 46.0 °F 41.4 °F 24.1 °F 42% 30.48 in 10.0 mi ENE 9.2 mph - N/A   Clear
1:53 PM 50.0 °F - 21.0 °F 32% 30.45 in 10.0 mi NE 8.1 mph - N/A   Clear
2:53 PM 51.1 °F - 19.0 °F 28% 30.44 in 10.0 mi NE 9.2 mph - N/A   Clear
3:53 PM 50.0 °F - 18.0 °F 28% 30.42 in 10.0 mi NE 9.2 mph - N/A   Clear
4:53 PM 45.0 °F 40.6 °F 19.9 °F 37% 30.42 in 10.0 mi ENE 8.1 mph - N/A   Clear
5:53 PM 39.0 °F 34.8 °F 21.0 °F 49% 30.44 in 10.0 mi East 5.8 mph - N/A   Clear
6:53 PM 37.0 °F 32.4 °F 21.0 °F 52% 30.45 in 10.0 mi East 5.8 mph - N/A   Clear
7:53 PM 28.9 °F 21.9 °F 19.0 °F 67% 30.47 in 10.0 mi SE 6.9 mph - N/A   Clear
8:53 PM 26.1 °F - 18.0 °F 71% 30.46 in 10.0 mi Calm Calm - N/A   Clear
9:53 PM 25.0 °F 20.7 °F 17.1 °F 72% 30.44 in 10.0 mi SSE 3.5 mph - N/A   Clear
10:53 PM 27.0 °F 23.0 °F 17.1 °F 66% 30.43 in 10.0 mi East 3.5 mph - N/A   Clear
11:53 PM 25.0 °F 20.7 °F 16.0 °F 69% 30.41 in 10.0 mi NNW 3.5 mph - N/A   Clear